Temp
16 15 15 15 15 15 15 15 15 15 15 14 14 14 14 14 13 13 13 12 12 12 12 11 11 11 11 11 11 11 11 11 11 11 11 12 11 11 10 10 11 12 12 12 12 12 11 11 11 11 11 11 11 10 10 10 10 10 10 10 10 9 9 9 8 7 6 6 6
15 15 15 15 15 15 15 15 14 14 14 14 14 14 14 14 14 13 13 12 12 12 11 11 11 11 10 10 10 10 10 10 11 11 11 11 10 10 9 10 10 10 10 10 11 11 11 11 11 11 11 11 10 10 10 10 9 9 9 9 9 9 8 7 6 6 6 6 6
15 15 15 15 15 15 15 14 14 14 14 14 14 14 14 13 14 13 13 12 12 12 11 11 10 10 10 10 9 9 10 10 10 10 10 10 9 9 9 9 9 9 9 10 11 11 11 11 11 11 11 10 10 10 10 9 9 9 9 9 8 8 7 6 6 6 6 7 7
15 15 15 15 15 15 15 14 14 14 14 14 14 13 13 13 13 13 13 12 12 11 11 11 10 9 9 9 9 9 9 10 10 9 9 9 8 8 8 8 8 8 9 10 11 11 11 11 11 11 10 10 10 10 9 9 9 8 8 8 7 7 6 6 6 7 7 7 7
15 15 15 15 15 15 15 15 15 14 14 14 13 13 13 13 13 13 12 12 12 11 11 10 10 9 9 9 8 8 9 9 9 9 8 8 7 7 7 7 7 7 8 9 10 11 11 10 10 10 10 10 10 9 9 9 8 8 7 7 7 7 7 7 7 7 7 7 7
15 15 15 15 15 15 15 15 15 14 14 13 13 13 13 12 12 12 12 12 11 11 10 10 9 9 9 8 8 8 8 8 8 8 8 7 7 7 6 6 6 7 8 9 10 11 10 10 10 10 10 10 9 9 8 8 7 7 7 6 6 7 7 7 7 7 7 7 7
15 15 15 15 15 15 15 14 14 14 13 13 13 13 12 12 12 12 11 11 11 10 10 9 9 9 8 8 8 7 7 8 8 8 8 8 7 6 6 6 6 7 8 9 10 10 10 10 10 10 9 9 8 7 7 7 7 7 7 7 7 7 7 7 7 7 7 7 7
15 15 15 15 15 15 14 14 14 13 13 12 12 12 12 12 11 11 11 10 10 10 9 9 9 9 8 7 7 7 7 7 7 8 8 7 7 6 6 6 6 6 8 9 10 10 10 9 9 9 8 8 7 6 6 7 7 7 7 7 7 7 7 7 7 7 7 6 6
15 15 15 15 14 14 14 14 13 13 12 12 12 12 12 11 11 11 10 10 10 9 9 9 8 8 7 6 6 6 6 7 7 7 8 7 6 6 6 6 6 7 8 9 9 9 9 9 9 8 7 6 6 6 6 6 7 7 7 7 7 6 6 6 6 6 6 5 5
14 14 14 14 14 13 13 13 13 12 12 12 11 11 11 11 10 10 10 10 9 9 8 8 7 7 6 6 6 6 6 6 7 7 7 7 6 6 5 6 6 7 8 9 9 9 8 8 7 7 6 6 5 5 6 6 6 6 6 6 6 6 6 6 5 5 5 5 5
14 14 14 13 13 13 13 13 12 12 12 11 11 11 10 10 10 10 10 9 9 8 8 7 7 6 6 6 7 7 7 6 6 6 6 6 5 5 5 6 7 8 8 8 8 8 8 7 6 5 5 5 5 5 5 6 6 6 6 6 6 6 5 5 4 4 4 5 5
14 13 13 13 13 12 12 12 12 11 11 11 10 10 10 10 10 9 9 9 8 8 7 7 7 7 7 7 7 7 6 6 5 5 5 5 5 5 6 6 7 8 8 8 8 7 7 6 5 5 5 5 5 5 5 5 6 6 6 5 5 5 4 4 4 4 4 5 5
13 13 12 12 12 12 12 12 11 11 10 10 10 10 9 9 9 9 9 9 8 7 7 7 7 7 7 7 7 7 6 5 4 4 4 4 5 5 6 6 7 8 8 7 7 7 6 5 4 4 4 4 5 5 5 5 5 5 5 5 4 4 4 3 4 4 5 5 5
12 12 12 12 12 11 11 11 10 10 10 10 9 9 9 9 9 8 8 8 7 7 6 6 6 7 7 7 7 6 5 4 4 3 4 4 4 5 6 7 7 7 7 7 6 6 5 4 3 3 4 4 4 4 5 5 5 4 4 4 4 4 4 4 4 5 5 5 5
12 12 12 11 11 11 11 10 10 9 9 9 9 8 8 8 8 8 8 7 7 7 6 6 6 6 6 7 6 6 5 4 3 3 3 3 4 5 6 7 7 7 6 6 6 5 4 3 3 3 3 4 4 4 4 4 4 4 3 3 3 3 4 4 5 5 5 5 4
12 11 11 11 11 10 10 10 9 9 9 8 8 8 8 7 7 7 7 7 7 6 6 6 5 5 6 6 5 5 4 3 3 3 3 3 4 5 6 6 6 6 6 6 5 4 3 3 3 3 4 4 4 4 4 3 3 3 3 3 3 3 4 4 5 5 5 4 4
11 11 11 10 10 10 9 9 9 8 8 8 8 7 7 7 7 7 7 7 6 6 5 5 5 5 5 5 4 4 3 3 3 3 3 3 4 5 5 6 6 6 6 5 4 3 3 3 3 3 3 3 3 3 3 3 3 3 3 3 3 4 4 4 5 4 4 4 4
11 10 10 10 10 10 9 9 8 8 8 7 7 7 6 6 6 6 6 6 6 6 5 5 5 4 4 4 4 3 3 3 3 3 3 3 4 5 5 6 6 6 6 5 3 3 3 3 3 3 3 3 3 3 3 3 3 3 3 3 3 4 4 4 4 4 4 4 4
10 10 10 10 10 9 9 8 8 8 7 7 7 6 6 6 6 6 6 6 6 6 5 4 4 4 4 3 3 3 3 3 2 3 3 3 4 5 6 6 6 6 5 4 3 3 3 3 2 2 2 3 3 3 3 3 3 3 3 3 4 4 4 4 4 4 4 4 4
10 10 9 9 9 8 8 8 8 7 7 7 6 6 6 6 6 6 5 5 5 5 5 4 4 3 3 3 3 2 2 2 2 3 3 4 5 6 6 6 6 5 4 3 3 2 2 2 2 3 3 3 3 3 3 3 3 3 3 3 4 4 4 4 4 4 4 4 4
9 9 9 9 8 8 8 8 7 7 7 6 6 6 5 5 5 5 5 5 5 4 4 3 3 3 3 2 2 2 2 2 2 3 4 5 6 6 6 5 4 4 3 2 2 2 2 3 3 3 3 3 3 3 3 3 3 3 3 3 3 4 4 4 4 3 3 3 3
9 9 8 8 8 8 7 7 7 7 6 6 6 5 5 5 5 5 5 4 4 4 3 3 3 2 2 2 2 2 2 2 2 3 4 6 6 5 5 4 3 3 2 2 2 2 3 3 3 4 4 3 3 3 3 2 2 2 3 3 3 3 3 3 3 3 3 3 3
9 8 8 8 7 7 7 7 7 6 6 6 5 5 5 5 5 4 4 4 3 3 3 3 2 2 2 2 2 2 2 2 3 4 5 5 5 4 4 3 3 2 2 2 2 3 3 4 4 4 3 3 3 2 2 2 2 3 3 3 3 3 3 3 3 3 3 3 3
8 8 8 7 7 7 7 7 6 6 6 5 5 5 5 5 4 4 4 3 3 3 2 2 2 2 2 2 2 2 2 3 4 4 4 4 4 3 3 2 2 2 2 2 3 3 3 3 3 3 3 2 2 2 2 3 3 3 3 3 3 3 3 3 3 3 2 2 2
8 8 8 7 7 7 7 6 6 6 5 5 5 5 5 4 4 4 3 3 2 2 2 2 2 2 2 2 2 2 3 4 4 4 4 3 3 2 2 2 2 2 2 3 3 3 3 3 3 2 2 2 2 2 3 3 3 3 3 3 3 3 3 2 2 2 2 2 2
8 8 7 7 7 6 6 6 5 5 5 5 5 4 4 4 3 3 3 2 2 2 2 2 1 1 2 2 2 3 4 4 4 4 3 3 2 2 1 1 2 2 3 3 3 3 2 2 2 2 2 2 3 3 3 3 3 3 3 3 2 2 2 2 2 2 2 2 2
8 7 7 7 6 6 6 5 5 5 5 4 4 4 3 3 3 2 2 2 2 2 2 1 1 1 2 2 3 3 4 4 3 3 3 2 1 1 1 2 2 2 3 2 2 2 2 2 2 2 2 2 3 2 2 2 2 2 1 1 2 2 2 2 2 2 2 1 1
7 7 6 6 6 5 5 5 5 4 4 4 3 3 3 2 2 2 2 2 1 1 1 1 1 2 2 2 3 3 3 3 3 2 2 1 1 1 1 2 2 2 2 2 2 2 2 2 2 2 2 2 2 1 1 1 1 1 1 1 2 2 2 2 1 1 1 1 1
6 6 6 5 5 5 4 4 4 4 3 3 3 3 2 2 2 2 2 1 1 1 1 1 1 2 2 2 2 2 2 2 2 2 1 1 1 1 2 2 2 2 2 2 2 2 2 2 2 2 2 1 0 0 0 0 1 1 1 2 2 2 1 1 1 1 0 0 0
5 5 5 5 4 4 4 4 4 3 3 3 2 2 2 2 2 1 1 1 1 1 1 1 1 2 2 1 2 2 1 1 1 1 1 1 1 1 2 2 2 2 2 2 1 1 1 1 1 1 1 0 0 0 1 1 1 1 2 1 1 1 0 0 -0 -0 -0 -0 -0
5 4 4 4 4 4 3 3 3 3 2 2 2 2 2 1 1 1 1 1 1 1 1 1 1 1 1 1 1 1 1 1 1 1 1 1 1 2 2 2 2 1 1 1 1 1 1 1 1 1 1 1 1 1 1 1 1 1 1 1 0 -0 -1 -1 -1 -1 -1 -1 -1
4 4 3 3 3 3 3 3 2 2 2 2 2 1 1 1 1 1 1 1 1 1 1 1 1 1 0 1 1 1 1 0 0 1 1 1 1 1 1 1 1 1 1 1 1 1 1 0 0 0 0 1 1 1 1 1 1 0 0 -0 -1 -1 -1 -1 -1 -1 -1 -1 -1
3 3 3 3 2 2 2 2 2 2 1 1 1 1 1 0 0 0 0 0 0 1 1 1 0 0 0 0 0 0 0 0 1 1 1 1 1 1 1 1 1 1 1 1 1 1 0 0 0 0 0 1 1 0 0 0 -0 -0 -1 -1 -2 -2 -2 -2 -2 -2 -2 -2 -2
2 2 2 2 2 2 1 1 1 1 1 1 0 0 0 0 -0 -0 -0 0 0 0 0 0 0 0 0 0 0 0 0 0 1 1 1 1 1 0 0 0 0 0 0 0 0 0 0 0 -0 0 0 0 0 -0 -0 -1 -1 -1 -2 -2 -2 -2 -2 -2 -2 -2 -2 -2 -2
2 2 1 1 1 1 1 1 0 0 0 0 -0 -0 -0 -0 -0 -0 -0 -0 -0 -0 -0 -0 0 0 0 0 0 0 0 0 0 1 1 0 0 0 0 0 0 0 0 0 0 0 0 -0 -0 -0 -0 -0 -1 -1 -1 -1 -1 -2 -2 -2 -2 -2 -2 -2 -2 -3 -3 -3 -3
1 1 1 1 1 0 0 0 0 -0 -0 -0 -0 -0 -0 -0 -0 -0 -0 -0 -0 -0 -1 -1 -0 -0 -0 -0 -0 0 0 0 0 0 0 0 0 -0 -0 0 0 0 0 0 0 -0 -0 -0 -1 -1 -1 -1 -1 -1 -1 -1 -2 -2 -2 -2 -2 -3 -3 -3 -3 -3 -3 -3 -3
1 1 1 0 0 -0 -0 -0 -0 -0 -0 -0 -0 -0 -1 -1 -1 -1 -0 -0 -1 -1 -1 -1 -1 -1 -1 -0 -0 -0 -0 0 0 0 0 0 0 0 0 0 0 -0 -0 -0 -0 -0 -1 -1 -1 -1 -1 -1 -1 -1 -1 -2 -2 -2 -3 -3 -3 -3 -3 -3 -3 -3 -3 -3 -3
0 0 0 -0 -0 -0 -0 -0 -0 -0 -1 -1 -1 -1 -1 -1 -1 -1 -1 -1 -1 -1 -1 -1 -1 -1 -0 -0 -0 -0 -0 0 0 0 0 0 0 0 0 0 0 -0 -0 -0 -1 -1 -1 -1 -1 -1 -1 -1 -1 -1 -2 -2 -2 -3 -3 -3 -3 -3 -3 -3 -3 -3 -3 -3 -3
0 -0 -0 -0 -0 -0 -0 -0 -1 -1 -1 -1 -1 -1 -1 -1 -1 -1 -1 -1 -1 -1 -1 -1 -1 -0 -0 -0 -0 -0 0 0 0 0 0 0 0 0 0 0 -0 -0 -0 -1 -1 -1 -1 -1 -1 -1 -1 -1 -1 -2 -2 -2 -2 -3 -3 -3 -3 -3 -3 -3 -3 -3 -3 -3 -4
-0 -0 -0 -0 -0 -0 -1 -1 -1 -1 -1 -1 -1 -1 -1 -1 -1 -1 -1 -1 -1 -0 -0 -0 -0 -0 -0 -0 0 0 0 0 0 0 0 0 0 0 0 -0 -0 -0 -1 -1 -1 -1 -1 -1 -1 -1 -1 -1 -2 -2 -2 -2 -3 -3 -3 -3 -3 -3 -3 -3 -3 -4 -4 -4 -4
-0 -0 -0 -0 -1 -1 -1 -1 -1 -1 -1 -1 -1 -1 -1 -1 -1 -1 -1 -1 -1 -1 -0 -0 -0 -0 -0 0 0 0 0 0 0 0 0 -0 -0 -0 -0 -0 -1 -1 -1 -1 -1 -1 -1 -1 -1 -1 -1 -2 -2 -2 -2 -3 -3 -3 -3 -3 -3 -3 -4 -4 -4 -4 -4 -4 -4
Height
731 733 734 736 737 739 740 742 743 744 745 747 748 749 750 752 753 755 756 758 758 760 761 762 763 764 765 765 766 768 768 770 771 773 775 777 778 780 781 783 786 788 790 792 793 795 796 796 795 796 798 800 801 803 803 804 804 805 805 805 805 806 807 808 809 810 810 811 812
730 731 733 734 736 738 739 741 742 743 744 745 746 747 748 749 751 753 754 756 757 759 760 762 763 765 766 766 767 768 769 770 772 774 775 777 779 780 782 783 786 788 789 791 793 795 795 796 796 796 797 799 800 802 803 804 805 805 805 805 805 806 807 808 809 809 810 811 812
728 730 732 733 735 736 738 740 741 742 743 744 745 746 747 748 749 751 753 754 756 758 760 762 763 765 766 768 769 770 771 772 774 775 776 777 779 780 782 783 785 787 789 790 792 793 795 795 796 796 797 798 799 800 802 804 805 806 805 805 806 806 807 808 809 809 810 811 812
728 729 730 732 733 734 735 737 738 739 740 742 743 745 746 747 748 750 752 753 755 757 758 760 763 765 767 768 770 772 773 775 775 776 777 778 779 781 783 784 785 787 789 790 791 793 794 795 796 796 797 798 799 800 801 803 805 805 806 805 806 806 807 808 808 809 810 811 812
727 728 729 730 731 732 733 734 735 737 738 740 742 744 745 747 748 750 751 752 754 756 757 759 761 763 766 768 770 772 774 775 776 777 778 779 780 781 783 784 786 788 789 791 791 792 793 794 795 796 797 798 799 800 802 803 804 805 805 805 805 806 807 808 808 809 810 811 812
726 727 728 728 729 730 732 733 734 735 737 739 740 742 744 746 748 749 750 751 753 755 756 758 759 761 764 767 770 772 773 775 776 777 778 779 781 782 783 785 787 788 790 791 791 792 793 794 795 796 797 798 800 801 802 803 804 805 805 805 805 806 806 807 808 809 810 811 812
724 725 726 727 728 729 731 732 733 735 736 738 739 741 742 744 746 747 749 750 752 754 756 757 758 760 763 766 769 772 773 773 774 776 778 780 781 782 783 785 788 789 790 790 791 791 792 793 794 795 797 798 800 801 802 803 804 804 804 805 805 806 806 807 808 808 809 810 812
722 723 724 726 727 728 730 732 733 734 736 737 738 740 741 743 745 746 748 750 752 753 754 755 756 758 761 765 768 771 773 773 774 776 778 779 781 782 783 785 788 790 791 791 790 791 792 793 793 795 796 798 800 801 802 803 803 804 804 804 805 805 806 806 807 808 809 810 812
721 723 724 725 727 728 730 732 733 734 735 736 738 739 741 743 744 746 747 749 751 752 753 754 755 758 761 764 767 770 772 773 774 775 776 778 779 781 782 784 787 789 791 791 790 790 791 792 793 795 796 798 800 801 801 802 803 803 804 804 804 805 805 806 807 808 809 810 812
720 722 723 725 727 728 730 732 733 733 734 736 738 740 741 743 744 745 747 748 750 752 753 753 755 758 761 763 766 768 771 773 774 774 774 776 778 779 781 783 786 789 790 790 790 790 790 791 793 795 797 798 799 800 801 802 802 803 803 803 804 804 805 806 807 808 809 810 812
719 721 723 725 727 728 730 731 732 733 735 736 738 740 741 742 743 745 747 748 750 752 753 754 755 758 760 763 765 767 770 772 773 773 773 774 776 778 780 782 785 788 789 789 789 789 789 790 793 795 797 798 799 799 800 801 802 802 803 803 803 803 804 805 806 807 809 810 812
720 721 723 725 726 728 729 730 732 733 735 736 738 739 741 742 743 745 747 748 750 752 753 754 755 757 759 762 764 767 769 771 771 772 772 773 775 778 780 782 784 786 787 788 788 788 789 790 793 795 796 797 798 798 799 800 801 801 802 802 803 803 804 804 805 807 809 810 811
720 722 724 725 726 728 729 730 731 733 734 736 738 739 740 742 743 745 747 748 750 751 753 754 754 755 757 760 763 766 768 769 771 772 773 774 775 777 779 782 783 785 786 786 787 788 789 790 793 794 796 797 797 798 798 799 800 801 802 802 803 803 803 804 806 808 809 809 810
721 722 723 725 726 727 728 730 731 733 734 736 738 739 741 742 744 745 747 748 749 751 753 754 755 755 757 758 761 763 766 768 770 772 773 774 776 777 779 781 782 783 784 785 786 787 789 791 793 794 795 796 796 797 798 799 800 801 802 802 803 803 804 805 807 808 808 809 809
721 722 723 724 726 727 729 730 732 733 735 736 738 739 740 742 744 745 746 748 749 750 752 753 755 756 757 758 760 762 765 768 769 771 773 775 777 778 779 780 781 781 782 784 786 788 789 791 792 793 794 795 796 797 798 799 800 801 802 802 803 803 805 806 807 808 808 808 809
720 721 723 724 726 727 729 730 732 733 735 736 738 739 740 742 743 745 746 747 748 750 752 753 754 756 758 759 760 761 764 767 769 771 773 775 778 779 779 779 779 780 782 783 786 788 789 791 792 793 794 795 796 798 798 799 800 801 802 802 803 805 806 807 808 808 808 808 808
719 720 722 724 726 727 729 730 732 733 734 736 738 739 740 742 743 744 745 747 748 750 751 753 754 755 757 758 760 761 763 766 768 770 772 774 777 778 778 779 779 780 782 784 786 788 790 791 792 793 794 795 796 798 798 799 800 801 801 803 804 805 807 807 807 808 808 808 808
719 720 722 723 725 727 728 730 731 733 734 736 738 739 740 741 743 744 745 747 748 749 751 753 754 755 756 758 759 760 762 765 768 770 772 773 776 777 778 778 779 781 783 785 787 789 790 791 792 793 794 795 796 798 798 799 800 801 802 803 805 806 806 807 807 807 807 807 808
719 720 722 724 725 727 728 730 731 733 735 736 738 739 740 741 742 743 745 747 748 749 750 752 754 755 756 758 759 760 763 765 768 770 772 773 775 777 778 779 780 782 784 786 788 789 790 791 792 793 794 795 797 798 798 799 800 801 802 804 805 805 806 806 806 806 806 807 807
719 721 722 724 725 727 728 730 732 733 735 737 738 739 740 741 743 744 745 747 748 749 751 752 754 755 757 758 759 761 764 766 768 770 772 773 775 777 778 779 781 783 785 787 788 789 790 791 792 793 794 796 797 798 798 799 800 801 803 804 805 805 805 805 805 805 805 806 806
720 721 723 724 725 727 729 730 732 734 735 737 738 739 741 742 743 744 745 747 748 750 751 752 753 755 757 758 760 762 764 767 769 770 772 773 775 776 778 779 781 783 785 787 788 789 790 791 792 793 795 796 796 797 798 799 800 801 803 804 804 804 804 804 804 804 804 805 805
721 722 723 724 726 727 729 731 733 734 736 737 738 740 741 742 743 745 746 747 749 750 751 753 754 756 757 758 760 762 765 767 769 771 772 773 774 776 778 780 782 783 785 787 788 789 790 792 793 794 794 795 796 797 798 799 800 802 803 803 803 803 803 803 803 804 804 804 804
722 723 723 725 726 728 729 731 733 734 736 737 739 740 742 743 744 745 747 748 749 750 752 753 755 756 758 759 761 763 765 767 769 771 772 773 774 776 778 780 782 784 786 787 788 790 791 792 793 793 794 795 796 797 798 800 801 802 803 803 803 803 803 803 803 803 803 803 803
722 723 724 725 726 728 729 731 733 734 736 737 739 740 742 743 744 745 747 748 749 751 752 754 756 757 758 760 761 763 765 767 768 770 771 773 774 776 778 780 783 784 786 788 789 790 791 792 792 793 794 795 796 798 799 800 801 802 802 802 802 803 803 803 803 803 802 802 802
722 723 724 725 726 728 729 731 732 734 735 737 739 740 742 743 744 745 747 748 750 751 753 755 756 758 759 760 762 763 765 767 768 769 771 772 774 776 779 781 783 786 787 788 789 790 791 791 792 793 794 796 797 798 799 800 801 802 802 802 802 803 802 802 802 802 802 801 801
722 723 724 725 726 728 729 730 732 733 735 737 739 741 742 743 744 746 747 748 750 752 754 755 757 758 760 761 763 765 766 768 768 769 770 772 775 777 780 782 784 786 788 788 789 790 791 791 792 793 795 796 797 798 799 800 801 801 802 802 802 802 802 802 801 801 801 800 800
723 724 725 726 727 728 729 730 732 734 736 737 739 740 742 743 745 746 748 749 751 753 754 756 758 759 760 762 763 765 766 768 768 769 771 773 776 778 781 783 785 787 788 789 789 790 791 792 793 794 795 796 797 798 799 800 801 802 802 802 802 802 801 801 801 800 800 799 799
723 724 725 727 728 728 730 731 733 734 736 738 739 740 742 743 745 747 748 750 751 753 755 757 758 759 761 763 764 765 766 767 769 770 772 775 777 780 782 784 786 787 788 789 790 790 791 792 793 794 794 795 796 798 799 800 801 802 802 801 801 801 800 800 800 799 799 799 798
723 725 726 727 728 729 731 732 733 735 736 738 739 741 743 744 746 748 749 751 752 754 755 757 758 760 762 763 765 766 767 768 769 772 774 777 779 781 783 785 786 788 789 789 790 790 791 792 793 793 794 796 797 798 800 801 801 801 801 801 801 800 800 799 799 798 798 798 798
724 725 727 728 729 730 732 733 734 736 737 739 740 742 743 745 747 748 750 752 753 754 755 757 758 760 762 763 765 766 768 769 771 773 775 778 780 782 784 785 787 788 788 789 790 790 791 792 793 794 795 797 798 799 800 800 800 800 800 800 800 800 799 798 798 798 798 798 797
725 726 727 728 730 731 733 734 735 737 738 740 741 743 745 747 748 750 751 752 753 755 756 758 759 761 763 764 765 767 768 770 772 774 777 778 780 782 784 785 787 788 789 790 790 791 792 793 794 795 796 798 798 799 799 799 799 800 800 800 800 799 798 798 798 798 797 797 797
726 727 728 729 731 732 733 735 736 738 739 741 743 744 746 748 749 750 752 753 754 756 757 758 760 762 763 765 766 768 769 772 773 776 778 779 781 783 784 786 787 788 789 790 791 793 793 794 795 796 797 797 798 798 798 799 799 800 800 800 799 799 798 798 798 797 797 796 796
727 728 729 730 732 733 735 736 738 739 740 742 744 745 747 748 750 751 753 754 755 757 758 760 761 763 764 766 768 769 771 773 775 777 778 780 782 783 785 786 788 789 790 791 792 793 794 795 795 796 796 797 797 798 799 799 800 800 800 799 799 798 798 798 797 797 796 796 796
729 730 731 732 733 735 736 738 739 740 742 743 745 746 748 749 750 752 753 755 756 758 760 761 763 764 765 767 768 770 772 774 776 778 779 781 782 783 785 787 788 790 791 792 793 793 794 794 795 795 796 797 798 798 799 799 799 799 799 799 798 798 798 797 797 796 796 796 795
730 731 732 733 735 736 738 739 740 742 743 744 746 748 749 750 752 753 754 756 758 759 761 763 764 765 767 768 770 771 773 775 777 778 780 781 783 784 786 787 788 790 791 792 793 793 794 794 794 795 796 798 798 799 799 799 799 799 799 799 798 798 797 797 796 796 796 795 795
732 733 734 735 737 738 739 740 742 743 745 746 748 749 751 752 753 755 756 758 759 761 762 764 765 767 768 770 771 773 774 775 777 778 780 782 783 784 786 788 789 790 791 792 793 793 793 794 795 796 797 798 798 799 799 799 799 799 798 798 798 797 797 796 796 796 795 795 795
735 735 736 738 739 740 741 742 743 745 747 748 749 751 753 754 755 757 758 759 760 762 763 765 766 767 769 770 772 774 775 776 778 779 781 783 784 785 787 788 789 790 791 792 792 793 794 795 796 797 798 798 798 798 798 798 798 798 798 798 797 797 796 796 796 795 795 795 794
737 738 738 740 741 742 743 745 746 747 749 750 752 753 754 755 757 758 760 761 762 763 765 766 767 768 770 771 773 775 776 778 779 780 782 783 785 786 787 788 789 790 791 792 793 794 795 796 796 797 798 798 798 798 798 798 798 798 798 797 797 796 796 796 795 795 795 794 794
739 740 741 742 743 744 746 747 748 750 751 752 754 755 756 757 759 760 762 763 763 764 765 767 768 769 771 772 774 776 778 779 781 782 783 784 785 786 787 788 789 790 791 793 794 795 796 796 797 797 797 798 798 798 798 798 798 797 797 797 796 796 796 795 795 795 794 794 794
740 742 743 744 745 746 747 749 750 752 753 754 755 757 758 759 760 762 763 764 765 766 767 768 769 770 772 773 775 777 778 780 782 783 784 785 786 787 788 788 790 791 792 793 794 795 796 797 797 797 797 797 797 798 798 797 797 797 796 796 796 795 795 795 794 794 794 793 793
742 743 744 745 746 748 748 750 752 753 754 756 757 758 759 761 762 763 765 766 767 767 768 769 770 772 773 775 777 778 779 781 782 783 784 785 786 787 788 789 790 792 793 794 795 796 796 797 797 797 797 797 797 797 797 797 796 796 795 795 795 795 794 794 794 794 793 793 793
Wind_Speed
32 32 34 35 35 35 35 33 32 33 33 33 32 32 31 31 31 31 30 30 31 30 29 29 30 30 30 32 34 35 35 34 35 35 33 31 28 25 24 25 26 26 25 24 23 22 22 21 20 19 18 17 16 15 15 14 15 15 15 16 15 15 14 13 12 11 10 9 7
32 33 34 34 35 35 33 31 31 32 32 32 32 32 32 33 32 31 30 30 30 30 28 27 27 27 27 28 31 33 33 33 33 33 31 28 26 25 26 26 26 25 25 24 24 23 22 21 20 19 19 18 17 16 16 15 15 15 15 15 14 13 12 11 10 9 8 8 7
32 33 33 34 34 33 32 30 31 31 32 32 31 31 32 33 32 31 31 30 30 29 27 26 24 24 24 25 27 29 30 31 31 31 30 28 26 26 26 26 26 25 25 24 24 23 22 21 20 20 19 19 18 18 17 16 15 15 14 13 12 11 10 9 9 8 7 7 6
32 33 33 34 34 35 34 32 32 33 33 32 31 31 31 31 31 30 30 30 29 28 27 26 24 23 23 24 26 27 28 29 30 30 29 28 27 27 26 26 25 25 25 25 25 24 22 21 21 20 20 19 19 18 17 16 15 13 12 11 10 10 10 9 8 7 7 6 5
33 34 34 35 36 38 37 35 34 34 34 33 31 30 30 30 30 29 29 29 28 27 26 26 25 24 24 25 26 27 28 30 30 30 29 27 27 27 26 25 25 26 26 26 25 24 23 22 21 21 20 19 18 16 15 14 13 12 11 10 10 10 9 9 8 6 6 5 5
33 34 35 36 38 38 37 35 34 34 33 32 31 30 29 29 29 29 29 29 29 28 26 25 26 26 26 26 27 29 30 31 31 30 29 27 26 26 25 25 26 26 27 26 25 24 23 22 21 20 19 17 15 14 13 12 12 11 11 11 11 10 9 8 7 6 5 4 4
35 36 36 36 38 37 35 33 32 32 31 31 31 31 30 29 29 29 29 29 29 28 26 26 27 27 27 28 28 29 30 32 32 30 29 27 26 25 26 26 26 27 27 26 25 24 23 22 21 20 18 16 14 13 12 12 11 11 11 11 10 9 8 7 6 5 4 4 4
35 36 37 37 37 36 33 31 29 29 30 30 31 31 31 30 29 30 30 29 28 28 28 27 28 28 28 29 29 29 29 30 31 30 29 27 26 26 26 27 27 27 27 26 25 24 23 22 20 19 17 15 14 14 13 12 11 11 10 10 9 8 7 6 5 4 4 4 5
34 35 35 35 34 32 31 28 28 28 29 29 30 30 30 29 29 29 30 29 28 28 28 28 29 29 30 30 31 30 29 29 30 30 29 28 27 27 27 28 28 27 26 25 25 24 23 21 19 17 16 16 16 15 14 12 11 10 9 9 8 7 6 5 5 4 5 6 7
32 33 33 31 30 29 27 26 27 28 29 28 28 28 28 28 29 29 30 30 28 28 28 29 30 31 32 32 32 31 30 30 31 31 30 29 29 28 29 29 29 28 27 25 24 24 22 20 18 17 16 16 16 15 13 12 10 10 9 8 7 7 6 5 5 5 6 8 9
31 31 30 28 27 26 25 25 25 26 27 27 27 27 27 27 28 29 29 29 28 27 28 29 31 33 33 33 33 32 32 32 32 31 31 30 30 30 30 30 30 29 27 26 24 23 22 20 19 18 17 16 16 15 13 12 11 10 9 8 7 7 6 6 5 6 8 10 10
29 28 27 26 26 25 25 25 25 25 26 26 27 27 26 27 28 28 29 29 28 28 28 30 32 33 33 33 33 33 33 32 31 31 31 31 31 31 31 31 30 29 28 26 24 23 22 21 20 19 18 17 16 14 13 13 12 11 10 8 7 6 5 5 6 8 10 11 11
25 25 24 24 24 25 25 24 24 25 25 26 26 26 26 26 27 28 29 29 29 29 29 30 32 33 34 34 34 34 32 30 29 29 29 30 31 32 32 32 31 30 28 26 24 23 22 21 20 19 18 17 16 15 14 13 12 10 8 7 6 5 4 5 7 10 11 12 11
23 23 23 23 24 24 24 24 24 24 24 25 25 26 26 27 28 29 30 30 30 29 29 30 31 33 34 34 35 34 32 29 28 27 28 29 31 32 33 32 31 30 28 25 24 23 22 21 20 19 18 17 16 14 13 11 9 7 6 5 4 4 5 7 10 11 12 11 11
22 23 23 23 24 24 24 24 23 23 24 25 25 26 27 27 28 29 30 31 30 30 30 31 31 32 33 34 35 34 31 28 27 27 27 28 30 32 32 32 31 29 27 25 24 23 22 21 20 19 17 16 14 12 10 8 6 5 4 3 3 4 6 9 11 11 11 11 12
23 23 23 23 24 24 24 23 23 23 24 25 25 26 27 28 29 30 30 31 31 30 30 31 32 32 33 33 33 32 30 29 28 29 29 30 31 32 32 31 30 28 27 25 23 22 21 20 19 17 15 13 11 10 8 7 5 4 4 3 4 6 8 10 10 11 11 11 12
24 24 24 24 24 24 24 23 23 24 24 25 25 26 27 28 29 29 30 31 30 30 30 31 32 33 33 32 31 31 30 30 30 31 32 32 32 32 31 30 29 27 26 24 22 21 19 17 15 14 12 10 9 8 6 6 5 4 4 5 6 8 9 10 10 10 11 11 11
24 24 24 24 24 24 24 24 24 24 25 25 26 26 27 28 29 29 29 30 30 30 30 30 31 32 32 32 31 31 31 31 32 33 33 34 33 32 31 30 28 26 24 22 20 19 17 15 13 12 10 9 8 7 6 5 5 5 5 7 9 10 10 10 10 11 11 11 11
24 24 24 24 24 24 24 25 25 25 25 25 26 26 27 28 29 29 29 29 29 29 30 30 29 30 31 31 31 30 30 31 32 32 33 33 33 32 30 28 26 24 22 20 18 16 15 14 12 11 10 9 8 7 6 6 6 6 8 9 10 11 11 11 11 11 11 12 12
23 24 24 24 24 24 24 24 24 25 25 25 25 25 26 27 28 28 28 28 28 28 29 29 29 29 29 30 30 30 30 31 31 32 32 32 32 30 29 26 24 21 19 18 16 14 13 12 12 11 10 10 9 8 7 7 7 8 9 10 11 11 11 11 11 11 12 12 12
23 23 23 23 23 23 23 24 24 24 24 24 24 25 26 27 27 27 27 27 27 27 28 28 29 29 30 30 30 30 29 30 30 31 32 32 31 28 26 24 22 20 18 16 14 13 13 12 12 12 11 10 9 8 8 7 8 9 11 11 11 11 11 11 11 11 12 12 13
21 22 22 23 23 23 23 23 23 23 24 24 24 25 25 26 26 26 26 27 27 27 28 28 29 30 30 30 30 30 29 30 30 31 31 31 29 26 24 22 20 19 17 15 14 14 13 13 13 12 11 9 8 7 7 8 9 10 11 11 11 11 11 11 12 12 13 13 13
21 21 22 22 22 23 23 23 23 23 24 24 24 24 25 25 25 25 25 26 26 27 28 28 29 29 30 30 30 30 30 30 31 31 30 29 26 24 23 21 19 18 16 15 15 15 15 14 13 11 9 8 7 7 8 9 10 11 11 11 11 11 11 12 13 13 13 14 14
21 21 22 22 22 23 23 24 24 24 25 24 24 24 24 24 24 25 25 26 27 27 28 28 28 29 29 30 30 31 31 31 31 30 29 27 25 23 22 20 18 17 16 16 16 15 14 13 11 9 8 8 8 9 9 10 10 11 11 11 11 11 12 12 13 14 14 14 14
21 22 22 22 23 24 24 25 25 25 25 25 25 25 25 25 25 25 26 27 27 27 27 28 28 29 29 30 30 31 32 32 31 29 27 26 24 23 21 20 18 17 16 16 15 13 11 10 9 8 8 9 10 10 10 10 10 10 10 11 11 12 12 12 13 13 14 14 14
22 22 22 23 24 25 25 25 26 26 26 26 26 25 25 25 25 26 26 27 27 27 28 28 28 28 29 30 31 31 31 31 29 28 27 26 24 22 21 19 18 17 16 15 13 11 10 9 9 9 9 10 9 8 7 7 8 9 10 11 11 12 13 13 14 14 13 13 13
22 22 22 23 24 25 25 26 26 26 26 26 26 26 26 26 26 26 26 27 27 27 27 27 28 28 29 30 30 31 30 29 28 27 27 26 24 22 20 19 18 16 15 13 12 11 10 10 10 10 9 8 6 5 6 7 9 10 11 11 12 13 14 14 14 13 12 12 11
22 22 22 23 24 24 25 25 26 26 26 26 26 26 26 26 26 26 26 27 27 27 27 27 27 28 29 29 30 30 29 29 28 27 26 24 23 21 20 19 17 16 15 14 13 12 11 10 10 9 7 6 5 5 7 8 10 11 12 12 13 14 14 14 13 12 11 10 10
22 22 23 23 23 24 24 25 25 25 25 26 26 26 26 25 25 26 26 26 27 27 26 26 27 28 28 29 29 29 29 28 27 26 25 24 22 21 20 19 18 17 15 14 13 11 10 8 8 7 6 5 5 7 8 9 10 10 11 12 12 12 12 12 11 10 9 8 8
22 23 23 23 23 23 24 24 24 24 25 25 26 26 25 25 25 25 25 26 26 26 26 27 27 28 28 29 29 29 28 28 27 26 25 24 23 22 21 20 18 16 14 12 10 8 7 5 4 4 5 5 6 6 7 7 8 9 10 11 11 10 9 9 8 7 6 6 5
22 23 23 23 23 23 23 23 24 24 25 25 25 25 24 24 24 24 24 25 25 25 26 27 28 28 29 29 29 29 28 27 26 26 25 24 23 22 20 17 15 13 11 9 8 7 5 4 4 4 4 4 4 4 6 7 9 9 10 9 9 7 6 5 4 4 4 4 3
22 23 23 23 23 23 23 23 24 24 24 25 24 24 23 23 23 24 24 25 25 26 26 28 28 29 29 29 29 29 28 27 26 25 24 23 21 19 17 15 13 11 10 9 9 8 8 7 5 4 3 3 3 5 7 8 9 9 9 7 6 4 3 3 2 2 2 3 3
22 23 23 23 23 23 23 23 23 24 24 24 23 23 23 24 24 24 24 25 26 27 28 28 29 29 30 29 29 29 28 27 25 24 22 20 18 16 15 14 13 12 11 11 10 9 8 6 4 3 2 4 5 7 8 9 9 8 6 4 3 2 1 1 1 2 2 3 3
22 23 23 23 23 23 23 23 23 23 23 23 23 23 24 25 25 25 25 26 27 28 28 29 30 30 30 29 29 28 27 25 23 21 19 18 17 16 16 15 14 13 11 10 9 7 5 4 2 3 4 5 6 7 7 8 7 6 4 2 1 0 0 1 1 2 3 4 5
22 23 23 23 23 22 22 22 23 23 23 24 24 24 25 25 25 26 26 27 28 28 28 29 29 29 29 28 27 27 26 24 22 20 18 17 17 17 17 16 14 12 10 8 6 5 3 2 1 3 4 5 5 6 6 6 5 3 2 1 1 0 1 1 2 3 4 5 6
22 23 23 22 22 22 22 23 23 23 24 24 24 24 25 25 25 26 27 28 29 29 29 28 28 28 27 27 26 25 24 23 22 20 18 17 17 17 16 14 12 10 7 6 4 3 1 1 1 3 3 4 5 5 6 5 4 2 1 1 1 0 1 2 3 4 5 6 7
22 22 23 23 22 22 22 23 23 24 24 24 24 25 25 25 26 26 27 29 29 29 28 28 28 27 27 27 26 24 23 22 21 19 18 16 15 15 14 12 11 8 6 4 3 2 2 1 2 2 3 3 4 5 5 4 2 1 1 1 1 1 2 3 4 5 6 7 7
21 22 22 22 22 22 23 23 23 24 24 24 25 25 25 26 26 26 27 28 29 28 28 28 27 27 27 26 25 23 21 19 18 17 16 15 13 12 11 11 10 8 6 5 4 3 3 3 3 3 2 3 4 4 4 3 1 1 1 1 1 2 3 4 5 6 6 7 7
22 22 22 23 23 23 23 24 24 24 24 24 24 25 25 25 25 25 26 27 28 29 28 28 27 27 26 25 23 22 19 17 16 15 14 13 11 10 9 9 9 8 7 6 5 5 5 5 4 2 2 3 4 4 3 2 1 1 1 1 2 3 4 5 6 7 7 7 7
23 23 24 24 24 24 25 25 25 24 25 25 25 25 25 25 25 25 25 26 27 28 28 28 27 26 24 23 22 20 18 16 15 13 12 11 10 9 8 8 8 8 8 7 6 6 6 5 4 2 2 3 3 3 3 3 2 2 2 3 4 5 6 7 8 8 8 8 8
24 25 25 25 25 26 26 26 26 25 25 25 25 25 25 25 25 25 25 26 26 27 27 27 26 24 23 21 20 19 17 16 14 12 11 10 9 8 8 7 8 9 9 8 7 6 5 5 4 2 3 3 3 3 3 3 3 3 4 5 6 6 7 8 9 9 9 9 9
Wind_Direction
196 196 196 196 197 197 198 199 200 201 200 199 198 197 196 196 197 198 199 199 200 200 200 199 198 197 197 198 196 194 193 193 191 191 193 199 200 194 187 185 187 190 192 193 193 193 192 191 188 185 183 182 182 181 180 180 179 178 177 175 174 174 177 178 178 176 172 168 171
195 195 196 197 197 197 197 198 199 200 200 200 199 198 197 197 197 197 198 199 200 200 199 197 196 196 196 196 194 192 190 189 186 186 188 193 191 185 182 184 187 190 192 192 192 191 190 188 185 182 179 179 179 178 177 178 179 178 177 176 177 179 181 178 173 168 165 165 173
194 195 195 196 196 196 196 197 199 200 201 201 201 200 199 198 198 199 199 199 199 198 196 194 193 193 193 191 189 188 186 184 182 182 184 186 184 182 183 185 187 189 191 191 191 190 188 186 184 181 178 177 177 176 174 176 180 182 181 180 180 179 174 168 164 162 165 170 180
194 194 194 195 197 197 198 199 201 202 202 201 200 200 199 198 197 197 197 197 197 195 193 190 188 188 189 187 184 183 182 182 181 181 183 183 183 183 184 186 187 188 189 189 188 187 185 184 183 181 179 177 176 175 175 177 182 185 184 180 174 169 165 162 162 165 169 175 186
195 196 196 198 200 201 202 202 202 202 202 201 199 198 198 197 195 195 194 193 193 192 189 186 184 184 185 183 181 180 181 181 182 183 184 185 184 184 184 186 187 187 187 187 186 184 183 182 180 178 177 176 176 177 178 181 182 181 177 170 166 165 165 165 166 169 174 181 194
196 198 199 201 203 204 204 203 203 202 200 198 196 195 194 194 193 192 192 191 190 187 183 180 181 182 182 181 180 181 181 182 183 185 186 187 187 185 184 184 185 186 186 185 184 182 181 179 177 175 174 174 176 178 179 179 177 173 169 165 165 167 169 169 171 173 179 189 203
199 200 201 203 204 204 203 203 202 200 198 195 194 193 192 191 191 190 190 188 185 181 178 177 180 180 180 179 180 181 182 182 184 185 187 189 189 186 183 182 184 185 185 184 182 180 179 178 175 172 172 173 172 172 172 173 172 170 168 166 167 169 171 172 174 178 185 199 216
202 202 203 204 204 204 202 201 199 197 195 193 193 192 191 190 188 188 186 183 179 177 177 179 181 180 178 177 177 178 179 180 182 185 187 189 188 186 183 182 183 185 185 184 180 177 176 176 174 172 170 169 168 167 167 170 171 172 170 167 166 167 169 172 178 186 199 217 229
201 202 203 204 203 202 200 198 197 195 193 192 192 191 189 187 186 185 183 180 177 177 178 180 180 177 174 173 174 176 178 180 182 184 186 188 187 185 183 182 183 184 183 181 178 175 174 174 172 170 167 165 165 166 166 168 169 168 166 164 163 164 170 179 190 205 217 227 231
201 201 201 201 200 199 197 196 196 195 192 191 189 188 186 185 185 184 182 180 177 177 178 177 175 171 170 171 174 178 181 183 184 184 184 185 185 183 182 181 182 182 181 178 176 175 173 171 167 165 165 167 167 166 166 167 168 166 164 166 168 173 181 193 204 216 225 230 232
201 200 199 198 197 195 194 193 193 192 190 187 185 184 183 184 184 183 181 179 176 175 175 174 170 168 169 173 177 181 184 185 184 183 182 182 182 181 181 180 181 180 178 177 176 175 171 167 164 164 167 169 169 168 168 171 174 175 176 179 183 187 191 198 209 220 228 230 232
199 197 196 195 194 192 190 189 188 187 185 183 182 181 181 182 182 180 178 176 174 173 172 171 170 170 173 177 180 183 185 184 183 181 179 178 178 179 179 180 180 179 178 178 178 175 170 165 164 167 170 170 170 171 175 180 186 188 189 190 191 191 192 200 213 223 229 231 233
195 193 192 191 190 189 187 185 183 182 180 179 179 179 178 178 177 176 174 172 171 169 169 171 172 174 177 179 182 184 185 183 181 178 176 175 176 177 177 178 179 178 178 179 179 175 169 165 166 168 170 170 173 178 185 190 194 194 192 189 190 191 197 210 220 226 229 232 235
191 189 188 188 187 185 183 181 179 177 176 175 175 174 174 172 172 171 170 170 169 168 169 171 173 176 179 181 183 184 183 180 177 175 174 174 175 175 176 176 177 177 178 178 178 174 169 166 168 171 172 174 178 184 189 192 192 190 188 187 191 201 215 224 226 229 231 234 238
188 187 186 185 183 181 179 177 175 173 172 171 171 171 169 168 168 168 169 169 171 171 171 171 172 176 179 181 182 181 178 175 173 172 171 172 173 174 174 174 174 175 176 177 175 172 170 169 171 174 176 178 180 182 183 183 181 181 184 193 206 223 229 230 231 233 236 239 242
185 185 184 182 181 179 176 174 172 171 169 168 168 168 166 166 167 168 169 170 171 172 172 173 174 176 178 179 179 176 173 171 171 170 170 170 172 173 173 171 171 173 175 175 174 172 171 172 173 173 173 172 171 170 169 170 173 179 188 201 218 228 231 232 234 237 240 243 246
182 182 182 181 180 177 174 172 171 170 169 167 167 166 166 166 167 169 171 173 172 172 173 174 175 175 176 176 175 172 169 169 170 170 170 171 172 172 171 170 172 175 176 174 171 170 170 169 166 163 160 157 156 158 163 169 176 185 197 211 222 228 231 233 236 239 242 246 249
180 180 180 180 179 176 174 172 170 169 169 167 167 166 167 168 169 170 172 174 174 174 174 174 175 174 173 172 170 169 168 169 170 170 171 171 172 172 171 173 175 176 175 171 169 166 163 158 152 149 148 148 151 157 165 174 183 195 207 218 224 228 231 234 237 240 244 247 250
178 178 178 178 177 175 174 173 171 169 167 167 167 167 167 169 170 171 172 174 176 175 174 172 171 171 171 169 167 166 167 168 169 169 170 170 171 173 174 175 176 174 170 166 164 159 152 145 143 146 151 154 158 164 171 181 190 204 215 223 227 231 234 237 240 244 247 250 252
177 176 176 175 173 172 172 172 169 167 166 166 166 166 167 169 171 171 172 173 175 174 172 170 168 167 167 165 164 164 165 167 167 168 168 170 172 174 175 174 171 167 163 159 154 148 143 142 145 152 159 163 167 172 179 189 200 212 222 228 231 234 237 240 243 247 250 253 255
175 174 172 171 170 169 169 168 167 165 165 165 166 167 167 169 170 171 172 172 172 170 169 167 166 164 163 163 162 162 163 165 166 167 168 170 172 172 170 167 162 158 153 149 144 142 143 148 154 159 163 168 175 183 192 202 213 221 227 231 233 236 239 243 246 249 252 254 255
173 171 169 168 167 167 166 165 164 163 164 165 166 166 167 168 169 170 170 169 168 166 166 165 163 162 162 161 160 160 161 162 165 167 169 170 168 165 162 158 153 148 144 142 143 146 150 154 159 163 168 173 182 191 201 210 216 222 226 230 233 238 242 246 249 251 254 255 257
170 168 166 164 163 163 163 162 161 162 163 164 165 165 165 166 166 166 165 164 164 163 163 162 161 161 160 160 159 159 159 161 163 166 167 165 160 156 152 148 143 141 142 146 150 153 157 160 163 168 174 180 186 194 203 210 216 221 226 231 237 242 246 250 252 255 257 259 262
167 164 162 161 161 162 161 160 161 162 162 163 163 164 163 163 162 161 161 161 160 160 159 158 159 159 159 159 159 159 160 161 162 161 160 156 151 146 142 139 139 143 148 153 157 161 165 168 171 174 179 184 189 196 203 210 217 225 232 238 244 248 252 255 259 262 264 267 268
165 163 161 160 161 161 160 160 160 161 161 162 162 161 160 159 158 158 157 157 157 156 156 156 156 157 157 158 159 160 162 163 160 156 150 146 143 140 138 139 144 150 155 159 164 169 175 179 180 181 183 186 192 199 207 217 227 237 245 251 254 258 261 265 269 272 274 275 276
163 161 160 160 159 159 158 159 159 160 160 159 159 158 157 156 155 154 153 153 153 153 154 154 154 155 156 157 158 160 162 161 157 152 146 141 139 138 141 146 152 157 161 165 169 173 174 175 176 179 183 188 194 204 218 235 248 257 262 264 267 270 274 277 280 281 282 283 284
158 157 157 157 156 156 156 157 158 158 157 156 155 154 153 153 151 150 149 149 150 151 151 152 152 153 154 156 158 158 157 155 151 147 143 140 140 142 147 152 156 159 161 160 159 159 159 162 167 174 182 191 204 226 247 260 265 268 271 274 278 280 283 285 286 288 290 291 290
153 153 154 154 153 153 154 154 154 154 154 154 152 152 150 148 147 147 147 147 148 148 149 149 150 151 153 154 155 155 153 149 146 143 141 140 142 146 149 151 150 149 146 142 141 144 150 158 168 178 188 201 222 245 257 261 264 268 273 278 282 285 286 288 290 294 296 296 293
150 150 150 149 148 149 149 150 150 150 150 150 149 149 147 144 144 144 145 146 146 146 146 147 148 150 150 150 151 150 148 145 142 140 140 141 144 145 145 143 140 138 136 136 140 146 156 167 180 191 201 215 233 246 253 259 266 273 280 284 286 288 290 293 296 298 299 298 295
146 145 144 143 143 143 144 145 145 145 145 145 145 144 142 141 142 143 143 144 144 144 145 146 147 147 147 147 146 144 142 140 139 139 140 142 142 142 142 141 139 137 137 140 145 151 161 174 189 203 214 223 234 246 259 272 283 289 293 294 294 296 298 300 302 303 301 299 297
140 139 138 137 137 137 138 139 139 140 140 140 140 139 139 139 139 140 141 142 142 143 144 146 145 144 144 144 142 140 139 138 138 140 141 142 141 142 143 144 142 138 136 137 140 139 137 141 159 182 200 213 235 270 293 301 304 305 304 303 304 304 306 306 305 303 302 303 302
134 133 131 131 130 131 132 133 134 135 135 136 136 136 136 136 137 138 139 140 141 141 143 144 143 142 141 140 139 138 138 138 139 141 143 144 143 144 144 143 138 132 127 126 124 123 124 131 144 163 192 238 288 308 314 315 314 313 311 310 310 310 309 306 306 310 315 319 318
128 128 127 125 125 126 128 128 129 130 131 132 132 132 133 133 134 135 137 138 140 141 142 143 142 140 138 138 138 138 139 140 142 144 146 147 146 144 140 135 129 125 123 122 123 126 132 142 158 191 252 292 308 315 318 318 318 318 315 313 309 304 301 314 332 342 344 342 337
123 122 122 121 121 122 124 125 126 127 127 128 128 130 131 131 132 132 134 136 139 141 142 142 140 139 139 139 139 140 141 143 145 147 148 148 146 141 136 131 129 129 131 133 139 146 155 168 207 266 292 308 315 318 321 322 322 321 316 305 280 247 49 15 3 357 351 348 343
119 118 118 118 119 120 121 122 123 124 125 125 125 127 129 130 131 131 133 136 138 139 139 139 138 138 138 139 140 141 142 144 145 147 148 147 145 141 138 137 138 143 149 157 166 173 181 198 262 292 305 314 318 321 325 328 327 321 300 253 204 161 35 9 359 354 350 346 342
116 116 117 117 118 118 119 121 122 122 122 123 123 124 126 128 130 132 135 137 137 135 134 134 135 135 136 137 140 142 143 144 144 145 146 147 146 145 145 146 150 156 165 174 178 172 162 189 264 282 296 310 318 326 331 335 330 311 257 219 203 307 356 354 353 350 347 345 343
115 117 117 117 116 117 118 120 120 120 120 121 122 124 126 128 129 132 135 136 134 133 132 133 133 134 135 137 139 141 143 145 144 144 144 146 148 151 153 156 157 158 160 163 156 140 137 174 221 255 284 308 324 334 340 342 332 287 236 223 242 312 338 343 345 346 347 347 347
115 117 117 116 115 116 117 118 118 119 119 121 123 125 127 129 129 131 134 135 133 132 132 132 133 135 137 139 140 141 143 144 144 143 144 146 151 157 161 161 157 152 148 146 143 142 152 173 198 234 281 315 332 341 346 349 339 275 239 247 288 325 337 342 344 347 349 352 354
115 117 117 116 116 115 116 117 118 119 121 123 124 126 127 128 128 130 133 134 134 133 133 133 134 136 138 139 139 140 141 143 144 144 145 147 152 158 161 159 154 150 147 146 149 152 157 165 179 212 285 322 337 344 352 2 9 9 348 340 343 345 347 349 351 353 354 355 355
118 118 119 118 118 119 119 119 120 122 124 125 124 125 125 126 128 130 132 134 135 135 135 135 136 137 139 140 140 140 140 142 143 145 145 146 149 151 153 153 153 153 152 152 156 158 159 162 175 213 289 317 330 342 354 7 20 24 18 7 359 354 353 352 354 355 354 353 350
121 122 122 122 123 123 123 123 124 125 126 126 125 126 127 128 130 131 132 133 134 134 135 135 136 138 140 141 141 141 140 140 140 141 141 141 140 139 142 149 156 160 160 160 162 161 159 161 179 224 280 302 315 334 350 4 15 18 13 5 358 353 351 350 350 351 351 347 344